[[{"header":{"parameterUnit":"m.s-1","parameterCategory":1,"la1":30.2991,"la2":30.254,"lo1":-89.0895,"lo2":-89.0444,"dy":0.0017,"dx":0.0017,"nx":28,"ny":28,"refTime":"2024-07-29T03:00:00:Z","depth":0,"parameterNumber":2,"parameterNumberName":"U-component_of_WINDS"},"data":[0,0,0,0,0,0,0,0,0,0,0,0,0,0,0,0,0,0,0,0,0,0,0,0,0,0,0,0,0,0,0,0,0,0,0,0,0,0,0,0,0,0,0,0,0,0,0,0,0,0,0,0,0,0,0,0,0,0,1.7593,1.7595,0,1.7754,1.7756,1.7757,1.7811,1.781,1.7809,1.7809,1.7975,1.798,1.7985,0,0,0,0,0,0,0,0,0,0,0,0,0,1.7334,1.7338,1.7593,1.7595,1.7597,1.7753,1.7756,1.7758,1.7811,1.781,1.7809,1.7809,1.7974,1.798,1.7986,0,0,0,0,0,0,0,0,0,0,0,0,0,1.7465,1.734,1.7593,1.7642,1.7648,1.7753,1.7756,1.7758,1.7811,1.781,1.7809,1.7808,1.7972,1.7979,1.7986,1.8054,0,0,1.801,1.8013,0,0,0,0,0,0,0,0,1.7458,1.7475,1.7633,1.7639,1.7646,1.7761,1.7725,1.7858,1.7811,1.7749,1.7809,1.7808,1.7905,1.7918,1.795,1.8062,1.8069,1.801,1.8015,1.8018,1.802,0,0,0,0,0,0,0,1.7449,1.7468,1.7657,1.7635,1.7643,1.7657,1.7675,1.7751,1.7831,1.7755,1.7759,1.7777,1.7908,1.7943,1.7955,1.8071,1.801,1.8017,1.8022,1.8025,1.8246,1.8247,0,0,0,0,0,0,1.7431,1.746,1.7651,1.7661,1.7547,1.7663,1.7682,1.7725,1.783,1.7845,1.7778,1.7779,1.793,1.7946,1.7961,1.8046,1.8018,1.8025,1.803,1.8244,1.8246,1.8247,0,0,0,0,0,0,1.7425,1.7447,1.7645,1.7562,1.7588,1.7668,1.7716,1.7729,1.7764,1.7848,1.7863,1.7798,1.793,1.795,1.803,1.8052,1.8029,1.8036,1.8243,1.8245,1.8247,1.8217,0,0,0,0,0,0,1.7417,1.7445,1.7471,1.7562,1.7592,1.7711,1.7717,1.7733,1.7776,1.7779,1.7871,1.7885,1.7931,1.8018,1.8038,1.8063,1.8042,1.8241,1.8244,1.8246,1.8216,1.8218,1.8219,0,0,0,0,0,1.7408,1.7457,1.7472,1.7495,1.7627,1.7712,1.773,1.7781,1.7778,1.7805,1.7859,1.7882,1.8047,1.8026,1.8048,1.8076,1.824,1.8243,1.8246,1.8216,1.8217,1.8219,0,0,0,0,0,0,1.7367,1.747,1.7488,1.7567,1.763,1.7721,1.7756,1.7781,1.7847,1.7847,1.7908,1.7929,1.8004,1.8048,1.8023,1.8146,1.8145,1.8152,1.8114,1.8117,1.8118,1.8105,1.8048,0,0,0,0,0,1.7367,1.7427,1.7514,1.7576,1.7607,1.7676,1.7715,1.7749,1.7817,1.7845,1.7905,1.797,1.8037,1.808,1.8146,1.8223,1.8244,1.8253,1.8255,1.8255,1.8261,1.8305,1.831,1.8257,1.8257,1.8257,0,0,1.7368,1.7431,1.7466,1.7569,1.7622,1.7684,1.7698,1.7763,1.7809,1.7855,1.7933,1.798,1.8057,1.8136,1.8174,1.8175,1.828,1.8259,1.8259,1.8264,1.8308,1.8313,1.8317,1.8259,1.8259,1.8258,0,0,1.74,1.7455,1.7512,1.7565,1.7645,1.769,1.7704,1.7791,1.7823,1.7903,1.7938,1.7995,1.8109,1.8162,1.8204,1.8257,1.8281,1.8277,1.8283,1.8325,1.833,1.8333,1.8352,1.8357,1.8282,1.8282,1.8282,0,1.7391,1.7485,1.7539,1.7601,1.7645,1.7689,1.7748,1.7796,1.7894,1.7924,1.7924,1.8067,1.8122,1.8214,1.8227,1.826,1.8277,1.8266,1.8325,1.8329,1.8334,1.8352,1.8358,1.8281,1.8281,1.8282,1.8282,0,1.747,1.7534,1.7571,1.7663,1.7712,1.7772,1.7835,1.7878,1.7908,1.7953,1.8034,1.8102,1.8182,1.8207,1.8237,1.8303,1.8301,1.8312,1.8312,1.8337,1.8354,1.8362,1.828,1.828,1.828,1.8281,0,0,1.748,1.7601,1.7613,1.7655,1.7747,1.7798,1.786,1.7938,1.7973,1.8039,1.8093,1.8188,1.8199,1.8246,1.8283,1.832,1.8357,1.8327,1.833,1.8329,1.8433,1.8423,1.843,1.8373,1.8375,1.8376,1.8426,0,1.7524,1.7636,1.7686,1.7776,1.7836,1.7878,1.7933,1.7995,1.8039,1.8097,1.8147,1.8213,1.8222,1.8251,1.829,1.8344,1.8378,1.8341,1.8424,1.8426,1.8402,1.844,1.843,1.8473,1.8433,1.8435,1.8435,0,1.7589,1.7654,1.775,1.7834,1.7861,1.7908,1.7984,1.8038,1.811,1.814,1.8193,1.8228,1.8295,1.8291,1.8384,1.8358,1.8395,1.8427,1.843,1.8438,1.8431,1.8449,1.8489,1.8495,1.8447,1.8446,1.8445,0,1.7586,1.7698,1.7769,1.7804,1.7904,1.7936,1.798,1.805,1.8093,1.816,1.8188,1.8262,1.8302,1.8358,1.8412,1.8404,1.85,1.85,1.8527,1.8525,1.8544,1.8542,1.859,1.857,1.857,1.8569,1.8569,0,1.7629,1.7685,1.7769,1.7812,1.7877,1.7935,1.7997,1.8044,1.8106,1.816,1.8202,1.8252,1.8321,1.8379,1.8422,1.8493,1.8511,1.8537,1.8547,1.8533,1.8529,1.8557,1.8555,1.8571,1.8571,1.857,1.857,0,1.7635,1.7693,1.7774,1.7862,1.7885,1.7929,1.8004,1.8049,1.8096,1.8163,1.8182,1.8256,1.8327,1.8387,1.8481,1.851,1.8582,1.8596,1.8558,1.8563,1.8586,1.8583,1.8652,1.8664,1.8636,1.8637,1.8637,0,1.7658,1.7702,1.7795,1.7833,1.7876,1.7938,1.7982,1.8041,1.8086,1.817,1.8205,1.8279,1.8341,1.8452,1.8514,1.8586,1.8601,1.8621,1.8612,1.8595,1.86,1.8596,1.8601,1.8621,1.8621,1.8621,1.8621,0,1.7692,1.7718,1.7781,1.7853,1.7905,1.7965,1.8026,1.8055,1.8126,1.8174,1.8246,1.8295,1.839,1.8463,1.8541,1.8587,1.8615,1.8623,1.8633,1.8617,1.8593,1.8606,1.8558,1.8621,1.8621,1.8621,1.8621,1.8621,1.7707,1.7748,1.7819,1.7887,1.7939,1.7995,1.8041,1.8093,1.8155,1.8237,1.8268,1.8342,1.8413,1.8521,1.8567,1.8626,1.863,1.8644,1.8648,1.865,1.8647,1.8584,1.8641,1.8641,1.8641,1.8641,1.8641,0,1.7742,1.779,1.7852,1.7936,1.7989,1.8011,1.808,1.8123,1.8188,1.8251,1.8312,1.8395,1.8466,1.8534,1.8608,1.8643,1.8658,1.866,1.8658,1.8668,1.864,1.8624,1.8647,1.8647,1.8647,1.8647,1.8647,1.8647,1.7767,1.7837,1.7872,1.7969,1.8018,1.809,1.8127,1.8179,1.823,1.8321,1.838,1.8424,1.8489,1.8568,1.8635,1.8653,1.8678,1.8677,1.8698,1.8671,1.867,1.8668,1.8653,1.8682,1.8682,1.8721,1.8721,1.8721]},{"header":{"parameterUnit":"m.s-1","parameterCategory":1,"la1":30.2991,"la2":30.254,"lo1":-89.0895,"lo2":-89.0444,"dy":0.0017,"dx":0.0017,"nx":28,"ny":28,"refTime":"2024-07-29T03:00:00:Z","depth":0,"parameterNumber":3,"parameterNumberName":"V-component_of_WINDS"},"data":[0,0,0,0,0,0,0,0,0,0,0,0,0,0,0,0,0,0,0,0,0,0,0,0,0,0,0,0,0,0,0,0,0,0,0,0,0,0,0,0,0,0,0,0,0,0,0,0,0,0,0,0,0,0,0,0,0,0,4.396,4.396,0,4.3953,4.3953,4.3953,4.3905,4.3904,4.3903,4.3902,4.3895,4.3896,4.3897,0,0,0,0,0,0,0,0,0,0,0,0,0,4.3932,4.3933,4.396,4.396,4.396,4.3953,4.3953,4.3953,4.3906,4.3904,4.3903,4.3901,4.3895,4.3896,4.3897,0,0,0,0,0,0,0,0,0,0,0,0,0,4.3936,4.3933,4.396,4.3935,4.3933,4.3953,4.3953,4.3953,4.3906,4.3904,4.3902,4.3901,4.3894,4.3896,4.3897,4.394,0,0,4.3901,4.3902,0,0,0,0,0,0,0,0,4.3936,4.3937,4.3939,4.3937,4.3934,4.3928,4.394,4.3948,4.3906,4.3916,4.3902,4.39,4.3907,4.3908,4.391,4.394,4.3939,4.3901,4.3902,4.3902,4.3903,0,0,0,0,0,0,0,4.3936,4.3937,4.3957,4.3939,4.3936,4.3925,4.3923,4.3942,4.3922,4.3915,4.3912,4.3912,4.3906,4.3909,4.391,4.3939,4.3901,4.3902,4.3903,4.3904,4.4004,4.4006,0,0,0,0,0,0,4.3939,4.3938,4.3957,4.3957,4.3931,4.3927,4.3925,4.3932,4.3921,4.3918,4.3913,4.3909,4.3907,4.3908,4.3909,4.3959,4.3902,4.3904,4.3904,4.4002,4.4005,4.4007,0,0,0,0,0,0,4.3939,4.3941,4.3958,4.3946,4.3947,4.3929,4.3937,4.3933,4.3936,4.392,4.3916,4.392,4.3906,4.3907,4.3933,4.3958,4.3904,4.3906,4.4,4.4003,4.4006,4.406,0,0,0,0,0,0,4.3938,4.3941,4.3958,4.3947,4.3948,4.3981,4.3939,4.3934,4.3938,4.3933,4.3925,4.3922,4.3905,4.3931,4.3934,4.3959,4.3907,4.3998,4.4001,4.4005,4.4055,4.4064,4.4071,0,0,0,0,0,4.3937,4.3973,4.3959,4.3961,4.3968,4.3983,4.3984,4.3963,4.3941,4.3957,4.3946,4.3922,4.3955,4.3934,4.3937,4.3963,4.3996,4.4,4.4004,4.4052,4.4062,4.4071,0,0,0,0,0,0,4.3987,4.3971,4.3955,4.3988,4.3987,4.3975,4.3995,4.3975,4.398,4.3975,4.395,4.3948,4.3978,4.3973,4.395,4.4004,4.3971,4.3976,4.4006,4.4016,4.4024,4.4025,4.3908,0,0,0,0,0,4.4001,4.4015,4.4,4.4031,4.4032,4.4013,4.4019,4.4004,4.4001,4.4001,4.3992,4.3991,4.4001,4.4008,4.4017,4.4054,4.4052,4.4074,4.4082,4.4088,4.4093,4.4113,4.4123,4.402,4.402,4.402,0,0,4.4032,4.4025,4.4035,4.4041,4.4038,4.4053,4.4013,4.403,4.4041,4.4003,4.4027,4.4021,4.4018,4.405,4.4064,4.4047,4.4121,4.4093,4.4099,4.41,4.4118,4.4128,4.4137,4.4023,4.4023,4.4022,0,0,4.4095,4.4091,4.4117,4.4115,4.4112,4.41,4.4106,4.4097,4.4091,4.4115,4.4087,4.4099,4.4117,4.4116,4.4118,4.4182,4.416,4.4185,4.4226,4.4246,4.4255,4.4262,4.4285,4.4293,4.419,4.419,4.419,0,4.4134,4.4155,4.4132,4.4152,4.4155,4.4122,4.4148,4.4147,4.4147,4.415,4.4131,4.4153,4.4149,4.418,4.4196,4.4199,4.4205,4.4186,4.4255,4.4262,4.4268,4.429,4.4299,4.4193,4.4193,4.4193,4.4192,0,4.4203,4.4218,4.4239,4.424,4.4245,4.4268,4.4249,4.4258,4.4242,4.4231,4.4256,4.425,4.4256,4.4263,4.4247,4.4292,4.4282,4.426,4.4226,4.4282,4.4302,4.431,4.4198,4.4197,4.4196,4.4195,0,0,4.4297,4.4285,4.4293,4.4294,4.4288,4.4299,4.432,4.4327,4.4335,4.4336,4.4353,4.4369,4.4349,4.4351,4.4335,4.4353,4.4404,4.4328,4.4327,4.4343,4.4455,4.4472,4.4482,4.439,4.4391,4.4392,4.4455,0,4.4358,4.4393,4.4374,4.4412,4.4426,4.4395,4.4413,4.4412,4.4403,4.4414,4.4404,4.4416,4.4387,4.4389,4.4404,4.4395,4.4427,4.439,4.4406,4.4407,4.4408,4.4492,4.4511,4.457,4.4463,4.4464,4.4465,0,4.4434,4.4439,4.4479,4.4471,4.4476,4.4493,4.4498,4.4508,4.4506,4.4498,4.4501,4.4481,4.4502,4.4468,4.4496,4.4472,4.4477,4.4473,4.4475,4.4476,4.444,4.4496,4.4588,4.4598,4.4477,4.4476,4.4475,0,4.4499,4.4516,4.4542,4.4543,4.4534,4.4547,4.4544,4.454,4.4546,4.455,4.4553,4.456,4.4564,4.4569,4.4552,4.4529,4.4582,4.4547,4.4577,4.4577,4.4589,4.4589,4.4684,4.4592,4.4592,4.4592,4.4592,0,4.457,4.4596,4.4571,4.4587,4.4615,4.4593,4.4621,4.4614,4.4611,4.4626,4.4599,4.4613,4.4589,4.4601,4.4587,4.4612,4.4614,4.4609,4.4605,4.4611,4.4612,4.4615,4.461,4.4594,4.4594,4.4593,4.4593,0,4.4648,4.4632,4.4659,4.4649,4.4647,4.4668,4.4659,4.4674,4.4663,4.4682,4.4685,4.4668,4.4681,4.4664,4.4674,4.4665,4.47,4.469,4.4701,4.4698,4.4729,4.4727,4.483,4.4842,4.4742,4.4743,4.4744,0,4.4694,4.4713,4.4705,4.4713,4.4712,4.4725,4.4731,4.4709,4.4716,4.4716,4.4731,4.4741,4.4748,4.4769,4.4758,4.4766,4.4756,4.4792,4.4757,4.4764,4.4758,4.4757,4.4759,4.4799,4.48,4.4801,4.4802,0,4.4778,4.477,4.4779,4.4786,4.4794,4.4798,4.48,4.4808,4.4786,4.4795,4.4808,4.4813,4.4825,4.4835,4.4841,4.4837,4.4817,4.4813,4.482,4.4828,4.4834,4.4831,4.4721,4.4811,4.481,4.4809,4.4809,4.4809,4.4842,4.4858,4.4855,4.4866,4.4866,4.4869,4.4882,4.4874,4.4884,4.4892,4.4878,4.4895,4.4892,4.4897,4.4897,4.4909,4.4894,4.4904,4.4907,4.491,4.4915,4.4831,4.491,4.491,4.4909,4.4909,4.4909,0,4.4925,4.4922,4.4932,4.4937,4.4946,4.4926,4.4927,4.4936,4.4951,4.4951,4.4959,4.4973,4.4984,4.4974,4.4982,4.4994,4.4985,4.4997,4.4996,4.4996,4.4928,4.4921,4.5005,4.5005,4.5005,4.5005,4.5005,4.5005,4.4969,4.4995,4.4987,4.5012,4.5009,4.5025,4.5027,4.503,4.503,4.5048,4.5056,4.505,4.5046,4.5054,4.5063,4.506,4.5064,4.508,4.5074,4.501,4.5001,4.4992,4.4985,4.5081,4.5081,4.5141,4.5142,4.5142]}]]